STARLINK-11230 [DTC] (61053 NORAD) Tracking and Keplerian Element Data

This shows tracking and keplerian element data for the satellite.

Feedback or suggestion? Click here.




ElementValue
Catalog61053
NameSTARLINK-11230 [DTC]
Epoch Orbit479
Epoch Day286.37496373
Epoch Year2024
RAAN321.9788
Inclination53.1536
Eccentricity0.0002111
Argument of Perigee137.4579
Mean Anonmoly222.6605
Mean Motion15.76712915
Decay Rate0.00056496
L11 61053U 24164D 24286.37496373 .00056496 00000+0 34711-3 0 9994
L22 61053 53.1536 321.9788 0002111 137.4579 222.6605 15.76712915 4796



Live tracking and technical data element details for STARLINK-11230 [DTC] (NORAD 61053). STARLINK-11230 [DTC] can be tracked NOW for your location showing map with azimuth and elevation plus other details from your city location.







IsCatalogInMostPopularTable: catalog: 61053, numindb: 25
Update: records affected: 1



GetName: 61053 STARLINK-11230 [DTC]

Hit Count: updated at: Fri, 06 Dec 2024 11:51:18 GMT